Overview Statistics Trail Chart Weather Telemetry Raw packets
 

This is the latest recevied weather packets stored in our database for station/object DF7ER-12. If no packets are shown the sender has not sent any weather packets the latest 10 day(s).

<< 58 59 60 61 62 63 64 >>
Time Temp. Humidity Pressure Rain* Wind** Luminosity Snow
1788269482 23.33° C 84% 1007.1 hPa - - - -
1788269182 23.33° C 86% 1007.1 hPa - - - -
1788268882 23.33° C 85% 1007.2 hPa - - - -
1788268582 22.78° C 88% 1007.2 hPa - - - -
1788268282 23.33° C 83% 1007.2 hPa - - - -
1788267982 23.33° C 85% 1007.3 hPa - - - -
1788267682 23.33° C 79% 1007.3 hPa - - - -
1788267382 25° C 71% 1007 hPa - - - -
1788267082 24.44° C 74% 1006.9 hPa - - - -
1788266782 25° C 72% 1006.9 hPa - - - -
1788266482 25.56° C 71% 1006.9 hPa - - - -
1788266182 24.44° C 74% 1007 hPa - - - -
1788265882 25° C 73% 1007 hPa - - - -
1788265582 25° C 72% 1007 hPa - - - -
1788265282 25° C 72% 1007 hPa - - - -
1788264982 25.56° C 71% 1006.9 hPa - - - -
1788264682 26.11° C 69% 1006.9 hPa - - - -
1788264382 25° C 69% 1007 hPa - - - -
1788264082 26.11° C 70% 1007 hPa - - - -
1788263782 25° C 71% 1007.1 hPa - - - -
1788263482 25.56° C 70% 1007 hPa - - - -
1788263182 25° C 73% 1007 hPa - - - -
1788262882 25° C 71% 1007.1 hPa - - - -
1788262582 25.56° C 72% 1007 hPa - - - -
1788262282 25.56° C 72% 1007 hPa - - - -

* Rain since midnight (hover to see other rain measurements)
** Current wind speed in m/s (hover to see current wind gust speed)